FW7203 Weather Reports


time (UTC)temp
C
wind
direction
speed
KPH
gust
KPH
rain 1hr
cm
rain 24hr
cm
rain mn
cm
humidity
%
barometer
mb
20260510055028 23 169 4.8 8.0 0.00 0.00 0.00 94 1011.8
20260510054542 23 360 1.6 8.0 0.00 0.00 0.00 94 1011.9
20260510054027 23 138 1.6 8.0 0.00 0.00 0.00 94 1012.0
20260510053526 23 178 3.2 6.4 0.00 0.00 0.00 94 1011.9
20260510053041 23 360 3.2 8.0 0.00 0.00 0.00 95 1012.0
20260510052526 23 183 3.2 8.0 0.00 0.00 0.00 95 1012.1
20260510052026 23 360 1.6 4.8 0.00 0.00 0.00 96 1012.1
20260510051546 23 360 0.0 4.8 0.00 0.00 0.00 96 1012.2
20260510051027 23 163 1.6 4.8 0.00 0.00 0.00 96 1012.2
20260510050526 23 0 0.0 6.4 0.00 0.00 0.00 96 1012.4
20260510050045 23 170 3.2 6.4 0.00 0.00 0.00 96 1012.3
20260510045526 23 162 3.2 4.8 0.00 0.00 0.00 96 1012.3
20260510045026 23 0 0.0 3.2 0.00 0.00 0.00 96 1012.4
20260510044539 24 0 0.0 3.2 0.00 0.00 0.00 96 1012.4
20260510044026 24 125 0.0 3.2 0.00 0.00 0.00 96 1012.4
20260510043528 24 0 0.0 3.2 0.00 0.00 0.00 96 1012.5
20260510043046 24 0 0.0 3.2 0.00 0.00 0.00 96 1012.7
20260510042530 24 0 0.0 1.6 0.00 0.00 0.00 96 1012.7
20260510042026 24 0 0.0 0.0 0.00 0.00 0.00 96 1012.8
20260510041542 24 0 0.0 3.2 0.00 0.00 0.00 96 1012.7
20260510041026 24 0 0.0 3.2 0.00 0.00 0.00 96 1012.8
20260510040526 24 130 0.0 3.2 0.00 0.00 0.00 96 1012.8
20260510040055 24 130 0.0 3.2 0.00 0.00 0.00 96 1012.8
20260510035525 24 0 0.0 4.8 0.00 0.00 0.00 96 1012.5
20260510035025 24 115 1.6 4.8 0.00 0.00 0.00 96 1012.3
20260510034545 24 104 1.6 4.8 0.00 0.00 0.00 96 1012.3
20260510034026 24 82 1.6 3.2 0.00 0.00 0.00 96 1012.4
20260510033527 24 0 0.0 3.2 0.00 0.00 0.00 96 1012.5
20260510033048 25 69 0.0 3.2 0.00 0.00 0.00 96 1012.5
20260510032529 25 0 0.0 3.2 0.00 0.00 0.00 96 1012.5
20260510032029 25 360 1.6 3.2 0.00 0.00 0.00 96 1012.5
20260510031540 25 80 0.0 4.8 0.00 0.00 0.00 96 1012.6
20260510031026 25 75 0.0 4.8 0.00 0.00 0.00 96 1012.5
20260510030527 25 145 0.0 3.2 0.00 0.00 0.00 96 1012.4
20260510030048 25 144 0.0 3.2 0.00 0.00 0.00 95 1012.3
20260510025533 24 0 0.0 3.2 0.00 0.00 0.00 95 1012.3
20260510025026 24 0 0.0 3.2 0.00 0.00 0.00 94 1012.1
20260510024546 24 0 0.0 3.2 0.00 0.00 0.00 94 1011.9
20260510024026 25 0 0.0 3.2 0.00 0.00 0.00 94 1011.9
20260510023528 25 0 0.0 3.2 0.00 0.00 0.00 94 1012.0
20260510023041 25 0 0.0 3.2 0.00 0.00 0.00 94 1011.9
20260510022526 25 0 0.0 0.0 0.00 0.00 0.00 92 1011.7
20260510022025 24 0 0.0 0.0 0.00 0.00 0.00 91 1011.5
20260510021542 24 0 0.0 1.6 0.00 0.00 0.00 90 1011.5
20260510021025 24 0 0.0 1.6 0.00 0.00 0.00 90 1011.4
20260510020527 25 0 0.0 1.6 0.00 0.00 0.00 89 1011.2
20260510020050 25 0 0.0 3.2 0.00 0.00 0.00 89 1010.8
20260510015526 25 0 0.0 3.2 0.00 0.00 0.00 89 1010.7
20260510015029 25 0 0.0 3.2 0.00 0.00 0.00 89 1010.7
20260510014547 25 140 0.0 3.2 0.00 0.00 0.00 89 1010.6
20260510014026 25 0 1.6 6.4 0.00 0.00 0.00 89 1010.6
20260510013530 25 163 3.2 6.4 0.00 0.00 0.00 89 1010.4
20260510013043 25 155 1.6 3.2 0.00 0.00 0.00 89 1010.5
20260510012526 25 0 0.0 3.2 0.00 0.00 0.00 89 1010.4
20260510012033 25 0 0.0 4.8 0.00 0.00 0.00 88 1010.2
20260510011544 25 0 1.6 6.4 0.00 0.00 0.00 88 1009.9
20260510011025 26 152 3.2 6.4 0.00 0.00 0.00 87 1009.6
20260510010525 26 157 0.0 8.0 0.00 0.00 0.00 87 1009.7
20260510010044 26 155 1.6 11.3 0.00 0.00 0.00 86 1009.6
20260510005530 26 148 4.8 11.3 0.00 0.00 0.00 85 1009.7
20260510005030 26 154 3.2 9.7 0.00 0.00 0.00 82 1009.7
20260510004542 26 135 4.8 9.7 0.00 0.00 0.00 82 1009.7
20260510004029 26 152 3.2 11.3 0.00 0.00 0.00 80 1009.7
20260510003526 26 153 6.4 11.3 0.00 0.00 0.00 80 1009.7
20260510003051 27 148 4.8 11.3 0.00 0.00 0.00 79 1009.5
20260510002529 27 155 4.8 11.3 0.00 0.00 0.00 79 1009.6
20260510002029 27 153 4.8 12.9 0.00 0.00 0.00 78 1009.6
20260510001548 27 146 6.4 12.9 0.00 0.00 0.00 76 1009.6
20260510001032 28 154 3.2 9.7 0.00 0.00 0.00 74 1009.4
20260510000529 28 153 4.8 11.3 0.00 0.00 0.00 72 1009.3
20260509235530 29 155 4.8 8.0 0.00 0.00 0.00 63 1009.1
20260509235026 29 151 1.6 6.4 0.00 0.00 0.00 64 1009.0
20260509234554 29 150 0.0 9.7 0.00 0.00 0.00 62 1009.0
20260509234026 29 153 3.2 9.7 0.00 0.00 0.00 64 1009.0
20260509233528 29 144 1.6 8.0 0.00 0.00 0.00 65 1009.0
20260509233048 30 150 1.6 6.4 0.00 0.00 0.00 67 1009.1
20260509232530 30 157 3.2 11.3 0.00 0.00 0.00 67 1009.0
20260509232026 30 157 1.6 11.3 0.00 0.00 0.00 67 1009.1
20260509231546 30 159 3.2 9.7 0.00 0.00 0.00 64 1009.0
20260509231026 30 161 3.2 9.7 0.00 0.00 0.00 61 1009.0
20260509230528 30 158 3.2 8.0 0.00 0.00 0.00 63 1009.0
20260509230043 30 150 3.2 8.0 0.00 0.00 0.00 62 1009.1
20260509225527 30 135 1.6 6.4 0.00 0.00 0.00 67 1008.9
20260509225030 30 134 1.6 6.4 0.00 0.00 0.00 65 1008.9
20260509224540 30 134 0.0 4.8 0.00 0.00 0.00 66 1008.9
20260509224026 30 131 0.0 4.8 0.00 0.00 0.00 69 1008.7
20260509223531 30 130 1.6 4.8 0.00 0.00 0.00 75 1008.8
20260509223049 30 90 1.6 3.2 0.00 0.00 0.00 76 1008.7
20260509222525 30 67 0.0 4.8 0.00 0.00 0.00 76 1008.8
20260509222026 30 82 1.6 4.8 0.00 0.00 0.00 76 1008.6
20260509221548 30 86 0.0 4.8 0.00 0.00 0.00 76 1008.7
20260509221026 30 79 1.6 6.4 0.00 0.00 0.00 77 1008.7
20260509220525 30 0 1.6 6.4 0.00 0.00 0.00 77 1008.6
20260509220046 30 0 0.0 3.2 0.00 0.00 0.00 78 1008.6
20260509215527 30 82 1.6 3.2 0.00 0.00 0.00 78 1008.6
20260509215029 30 0 0.0 3.2 0.00 0.00 0.00 78 1008.6
20260509214541 30 98 1.6 4.8 0.00 0.00 0.00 78 1008.6
20260509214026 30 101 1.6 4.8 0.00 0.00 0.00 79 1008.6
20260509213526 30 143 1.6 4.8 0.00 0.00 0.00 78 1008.6
20260509213042 30 126 0.0 6.4 0.00 0.00 0.00 79 1008.6
20260509212526 30 0 0.0 6.4 0.00 0.00 0.00 78 1008.7
20260509212026 31 90 0.0 6.4 0.00 0.00 0.00 78 1008.7
20260509211544 31 88 0.0 4.8 0.00 0.00 0.00 79 1008.6
20260509211028 31 95 0.0 6.4 0.00 0.00 0.00 75 1008.6
20260509210525 31 0 0.0 6.4 0.00 0.00 0.00 74 1008.7
20260509210053 31 140 0.0 6.4 0.00 0.00 0.00 68 1008.6
20260509205525 31 0 0.0 3.2 0.00 0.00 0.00 67 1008.6
20260509205026 31 0 0.0 4.8 0.00 0.00 0.00 68 1008.7
20260509204553 31 115 1.6 6.4 0.00 0.00 0.00 65 1008.8
20260509204028 31 134 0.0 6.4 0.00 0.00 0.00 68 1008.8
20260509203527 31 132 3.2 6.4 0.00 0.00 0.00 65 1008.9
20260509203045 31 0 0.0 6.4 0.00 0.00 0.00 67 1009.0
20260509202526 31 129 1.6 6.4 0.00 0.00 0.00 64 1009.0
20260509202027 31 0 0.0 0.0 0.00 0.00 0.00 65 1009.0
20260509201547 31 0 0.0 0.0 0.00 0.00 0.00 64 1009.0
20260509201026 31 0 0.0 0.0 0.00 0.00 0.00 69 1009.0
20260509200532 31 0 0.0 0.0 0.00 0.00 0.00 65 1009.0
20260509200055 31 0 0.0 4.8 0.00 0.00 0.00 66 1009.0
20260509195528 31 0 0.0 6.4 0.00 0.00 0.00 66 1009.1
20260509195026 30 126 0.0 6.4 0.00 0.00 0.00 68 1009.1
20260509194547 31 144 3.2 6.4 0.00 0.00 0.00 66 1009.2
20260509194027 30 138 3.2 6.4 0.00 0.00 0.00 71 1009.3
20260509193526 30 139 3.2 6.4 0.00 0.00 0.00 67 1009.3
20260509193048 31 123 1.6 4.8 0.00 0.00 0.00 69 1009.3
20260509192526 31 87 0.0 6.4 0.00 0.00 0.00 71 1009.3
20260509192028 30 0 1.6 6.4 0.00 0.00 0.00 68 1009.3
20260509191542 30 0 1.6 6.4 0.00 0.00 0.00 71 1009.4
20260509191026 31 0 0.0 0.0 0.00 0.00 0.00 68 1009.4
20260509190526 30 0 0.0 0.0 0.00 0.00 0.00 72 1009.4
20260509190044 30 0 0.0 6.4 0.00 0.00 0.00 72 1009.5
20260509185526 30 0 0.0 6.4 0.00 0.00 0.00 72 1009.6
20260509185027 30 16 3.2 6.4 0.00 0.00 0.00 73 1009.7
20260509184555 29 21 0.0 6.4 0.00 0.00 0.00 76 1009.7
20260509184026 28 20 3.2 8.0 0.00 0.00 0.00 75 1009.8
20260509183526 28 19 4.8 8.0 0.00 0.00 0.00 76 1009.8
20260509183042 28 0 1.6 6.4 0.00 0.00 0.00 76 1010.0
20260509182526 28 19 3.2 6.4 0.00 0.00 0.00 76 1010.1
20260509182026 28 0 0.0 8.0 0.00 0.00 0.00 78 1010.2
20260509181549 28 25 3.2 8.0 0.00 0.00 0.00 82 1010.3
20260509181026 27 34 3.2 8.0 0.00 0.00 0.00 80 1010.3
20260509180526 27 5 3.2 8.0 0.00 0.00 0.00 80 1010.3
20260509180042 28 32 1.6 6.4 0.00 0.00 0.00 81 1010.4
20260509175526 28 0 0.0 0.0 0.00 0.00 0.00 82 1010.5
20260509175026 27 0 0.0 3.2 0.00 0.00 0.00 87 1010.7
20260509174542 27 0 0.0 3.2 0.00 0.00 0.00 87 1010.9
20260509174027 27 0 0.0 0.0 0.00 0.00 0.00 86 1010.7
20260509173529 27 0 0.0 0.0 0.00 0.00 0.00 85 1010.8
20260509173056 27 0 0.0 0.0 0.00 0.00 0.00 86 1010.8
20260509172526 27 0 0.0 0.0 0.00 0.00 0.00 87 1010.9
20260509172027 27 0 0.0 0.0 0.00 0.00 0.00 86 1010.9
20260509171544 27 0 0.0 0.0 0.00 0.00 0.00 87 1011.0
20260509171026 27 0 0.0 0.0 0.00 0.00 0.00 87 1010.9
20260509170526 27 0 0.0 3.2 0.00 0.00 0.00 87 1011.0
20260509170041 27 0 0.0 3.2 0.00 0.00 0.00 89 1011.0
20260509165530 27 0 0.0 4.8 0.00 0.00 0.00 90 1011.0
20260509165026 27 0 0.0 4.8 0.00 0.00 0.00 91 1011.1
20260509164540 27 152 0.0 3.2 0.00 0.00 0.00 90 1011.0
20260509164025 26 0 0.0 8.0 0.00 0.00 0.00 91 1011.3
20260509163531 26 0 1.6 8.0 0.00 0.00 0.00 91 1011.2
20260509163047 26 147 1.6 8.0 0.00 0.00 0.00 91 1011.1
20260509162526 26 143 3.2 8.0 0.00 0.00 0.00 91 1011.1
20260509162026 27 142 0.0 4.8 0.00 0.00 0.00 90 1011.0
20260509161545 27 0 0.0 11.3 0.00 0.00 0.00 91 1010.9
20260509161026 26 0 1.6 11.3 0.00 0.00 0.00 92 1011.1
20260509160527 26 155 0.0 9.7 0.00 0.00 0.00 91 1010.7
20260509160047 26 148 1.6 9.7 0.00 0.00 0.00 93 1010.6
20260509155526 26 160 3.2 9.7 0.00 0.00 0.00 94 1010.7
20260509155026 26 159 3.2 8.0 0.00 0.00 0.00 94 1010.8
20260509154544 25 0 1.6 11.3 0.00 0.00 0.00 95 1010.5
20260509154026 25 160 3.2 11.3 0.00 0.00 0.00 96 1010.8
20260509153525 25 160 4.8 9.7 0.00 0.00 0.00 97 1010.8
20260509153052 25 86 0.0 3.2 0.00 0.00 0.00 98 1011.0
20260509152526 25 0 0.0 4.8 0.00 0.00 0.00 98 1011.1
20260509152036 25 0 0.0 4.8 0.00 0.00 0.00 98 1011.2
20260509151541 24 58 0.0 4.8 0.00 0.00 0.00 99 1010.5
20260509151027 24 0 0.0 0.0 0.00 0.00 0.00 99 1009.9
20260509150526 24 0 0.0 0.0 0.00 0.00 0.00 99 1010.5
20260509150050 24 0 0.0 0.0 0.00 0.00 0.00 99 1010.9
20260509145527 24 0 0.0 0.0 0.00 0.00 0.00 100 1011.1
20260509145026 24 0 0.0 0.0 0.00 0.00 0.00 100 1010.9
20260509144607 24 0 0.0 0.0 0.00 0.00 0.00 100 1010.9
20260509144029 24 0 0.0 0.0 0.00 0.00 0.00 100 1010.9
20260509143526 24 0 0.0 0.0 0.00 0.00 0.00 100 1011.1
20260509143058 24 0 0.0 0.0 0.00 0.00 0.00 100 1011.2
20260509142526 24 0 0.0 0.0 0.00 0.00 0.00 100 1011.1
20260509142026 24 0 0.0 0.0 0.00 0.00 0.00 100 1011.0
20260509141542 24 0 0.0 0.0 0.00 0.00 0.00 100 1011.1
20260509141026 24 0 0.0 0.0 0.00 0.00 0.00 100 1011.1
20260509140525 24 0 0.0 0.0 0.00 0.00 0.00 100 1011.2
20260509140057 24 0 0.0 0.0 0.00 0.00 0.00 100 1011.3
20260509135526 24 0 0.0 0.0 0.00 0.00 0.00 100 1010.8
20260509135030 24 0 0.0 0.0 0.00 0.00 0.00 100 1010.6
20260509134601 24 0 0.0 1.6 0.00 0.00 0.00 100 1010.4
20260509134026 24 0 0.0 3.2 0.00 0.00 0.00 100 1010.6
20260509133527 24 0 0.0 3.2 0.00 0.00 0.00 100 1011.0
20260509133047 24 0 0.0 0.0 0.00 0.00 0.00 100 1011.0
20260509132527 23 0 0.0 0.0 0.00 0.00 0.00 100 1011.0
20260509132027 23 0 0.0 0.0 0.00 0.00 0.00 100 1010.9
20260509131548 23 0 0.0 0.0 0.00 0.00 0.00 100 1010.7
20260509131026 23 0 0.0 0.0 0.00 0.00 0.00 100 1010.5
20260509130532 23 0 0.0 0.0 0.00 0.00 0.00 100 1010.6
20260509130056 23 0 0.0 0.0 0.00 0.00 0.00 100 1010.8
20260509125530 23 0 0.0 0.0 0.00 0.00 0.00 100 1011.0
20260509125030 23 0 0.0 0.0 0.00 0.00 0.00 100 1011.0
20260509124544 23 0 0.0 0.0 0.00 0.00 0.00 100 1011.0
20260509124029 23 0 0.0 0.0 0.00 0.00 0.00 100 1010.9
20260509123529 23 0 0.0 0.0 0.00 0.00 0.00 100 1010.9
20260509123053 23 0 0.0 0.0 0.00 0.00 0.00 100 1010.8
20260509122529 23 0 0.0 0.0 0.00 0.00 0.00 100 1010.6
20260509122028 23 0 0.0 0.0 0.00 0.00 0.00 100 1010.7
20260509121601 23 0 0.0 0.0 0.00 0.00 0.00 100 1010.9
20260509121029 23 0 0.0 0.0 0.00 0.00 0.00 100 1010.9
20260509120534 23 0 0.0 0.0 0.00 0.00 0.00 100 1011.1
20260509120048 23 0 0.0 0.0 0.00 0.00 0.00 100 1011.0
20260509115528 23 0 0.0 0.0 0.00 0.00 0.00 100 1010.9
20260509115027 23 0 0.0 0.0 0.00 0.00 0.00 100 1010.8
20260509114542 23 0 0.0 0.0 0.00 0.00 0.00 100 1010.7
20260509114027 23 0 0.0 0.0 0.00 0.00 0.00 100 1010.8
20260509113527 23 0 0.0 0.0 0.00 0.00 0.00 100 1010.8
20260509113041 23 0 0.0 0.0 0.00 0.00 0.00 100 1010.6
20260509112526 22 0 0.0 0.0 0.00 0.00 0.00 100 1010.5
20260509112030 22 0 0.0 0.0 0.00 0.00 0.00 100 1010.6
20260509111556 22 0 0.0 0.0 0.00 0.00 0.00 100 1010.7
20260509111026 22 0 0.0 0.0 0.00 0.00 0.00 100 1010.5
20260509110526 22 0 0.0 0.0 0.00 0.00 0.00 100 1010.3
20260509110040 22 0 0.0 0.0 0.00 0.00 0.00 100 1010.1
20260509105526 23 0 0.0 0.0 0.00 0.00 0.00 100 1010.2
20260509105029 22 0 0.0 0.0 0.00 0.00 0.00 100 1010.1
20260509104547 23 0 0.0 0.0 0.00 0.00 0.00 100 1010.3
20260509104028 23 0 0.0 0.0 0.00 0.00 0.00 100 1010.0
20260509103527 23 0 0.0 0.0 0.00 0.00 0.00 100 1010.1
20260509103053 22 0 0.0 0.0 0.00 0.00 0.00 100 1010.3
20260509102530 22 0 0.0 0.0 0.00 0.00 0.00 100 1010.2
20260509102027 22 0 0.0 0.0 0.00 0.00 0.00 100 1010.2
20260509101614 22 0 0.0 0.0 0.00 0.00 0.00 100 1010.0
20260509101031 22 0 0.0 0.0 0.00 0.00 0.00 100 1009.9
20260509100528 22 0 0.0 0.0 0.00 0.00 0.00 100 1010.1
20260509100044 22 0 0.0 0.0 0.00 0.00 0.00 100 1010.0
20260509095528 22 0 0.0 0.0 0.00 0.00 0.00 100 1010.1
20260509095032 22 0 0.0 0.0 0.00 0.00 0.00 100 1010.1
20260509094542 22 0 0.0 0.0 0.00 0.00 0.00 100 1010.1
20260509094026 22 0 0.0 0.0 0.00 0.00 0.00 100 1010.1
20260509093526 22 0 0.0 0.0 0.00 0.00 0.00 100 1010.0
20260509093042 22 0 0.0 0.0 0.00 0.00 0.00 100 1009.8
20260509092526 22 0 0.0 0.0 0.00 0.00 0.00 100 1009.8
20260509092031 22 0 0.0 0.0 0.00 0.00 0.00 100 1009.7
20260509091547 22 0 0.0 0.0 0.00 0.00 0.00 100 1009.8
20260509091027 22 0 0.0 0.0 0.00 0.00 0.00 100 1009.8
20260509090527 22 0 0.0 0.0 0.00 0.00 0.00 100 1009.7
20260509090045 22 0 0.0 0.0 0.00 0.00 0.00 100 1009.5
20260509085528 22 0 0.0 0.0 0.00 0.00 0.00 100 1009.5
20260509085028 22 0 0.0 0.0 0.00 0.00 0.00 99 1009.5
20260509084547 22 0 0.0 0.0 0.00 0.00 0.00 99 1009.6
20260509084030 21 0 0.0 0.0 0.00 0.00 0.00 99 1009.7
20260509083529 22 0 0.0 0.0 0.00 0.00 0.00 99 1009.9
20260509083044 22 0 0.0 0.0 0.00 0.00 0.00 99 1010.0
20260509082528 22 0 0.0 0.0 0.00 0.00 0.00 99 1010.0
20260509082026 22 0 0.0 0.0 0.00 0.00 0.00 99 1010.1
20260509081544 22 0 0.0 0.0 0.00 0.00 0.00 99 1010.1
20260509081028 22 0 0.0 0.0 0.00 0.00 0.00 99 1010.0
20260509080527 22 0 0.0 0.0 0.00 0.00 0.00 99 1010.1
20260509080042 22 0 0.0 0.0 0.00 0.00 0.00 99 1010.2
20260509075526 22 0 0.0 0.0 0.00 0.00 0.00 99 1010.4
20260509075026 22 0 0.0 0.0 0.00 0.00 0.00 99 1010.5
20260509074547 22 0 0.0 0.0 0.00 0.00 0.00 99 1010.4
20260509074025 22 0 0.0 0.0 0.00 0.00 0.00 99 1010.3
20260509073526 22 0 0.0 0.0 0.00 0.00 0.00 99 1010.4
20260509073055 22 0 0.0 0.0 0.00 0.00 0.00 99 1010.4
20260509072527 22 0 0.0 0.0 0.00 0.00 0.00 99 1010.5
20260509072029 22 0 0.0 0.0 0.00 0.00 0.00 99 1010.5
20260509071550 22 0 0.0 0.0 0.00 0.00 0.00 99 1010.5
20260509071029 22 0 0.0 0.0 0.00 0.00 0.00 99 1010.3
20260509070529 22 0 0.0 0.0 0.00 0.00 0.00 99 1010.3
20260509070046 22 0 0.0 0.0 0.00 0.00 0.00 99 1010.3
20260509065525 22 0 0.0 0.0 0.00 0.00 0.00 99 1010.2
20260509065029 22 0 0.0 0.0 0.00 0.00 0.00 99 1010.3
20260509064546 22 0 0.0 0.0 0.00 0.00 0.00 99 1010.4
20260509064031 22 0 0.0 0.0 0.00 0.00 0.00 99 1010.5
20260509063529 22 0 0.0 0.0 0.00 0.00 0.00 99 1010.5
20260509063043 22 0 0.0 0.0 0.00 0.00 0.00 99 1010.6
20260509062529 22 0 0.0 0.0 0.00 0.00 0.00 99 1010.6
20260509062029 22 0 0.0 0.0 0.00 0.00 0.00 99 1010.6
20260509061547 22 0 0.0 0.0 0.00 0.00 0.00 99 1010.6
20260509061035 22 0 0.0 0.0 0.00 0.00 0.00 99 1010.6
20260509060526 22 0 0.0 0.0 0.00 0.00 0.00 99 1010.6
20260509060048 22 0 0.0 0.0 0.00 0.00 0.00 99 1010.6
20260509055529 22 0 0.0 0.0 0.00 0.00 0.00 99 1010.7